Tracking 19246 objects as of 21-Sep-2018
HD Live streaming from Space Station
objects crossing your sky now

FENGYUN 1C DEB

Track FENGYUN 1C DEB now!
10-day predictions


NORAD ID: 41832
Int'l Code: 1999-025EYK
Perigee: 814.9 km
Apogee: 910.9 km
Inclination: 98.9 °
Period: 102.1 minutes
Semi major axis: 7233 km
RCS: Unknown
Launch date: May 10, 1999
Source: People's Republic of China (PRC)
Launch site: Taiyaun Space Center, China (TSC)

Note: This is SATELLITE DEBRIS
aabbcc
Your satellite tracking list
Your tracking list is empty




NASA's NSSDC Master Catalog

Two Line Element Set (TLE):
1 41832U 99025EYK 18263.72147928 +.00000540 +00000-0 +31826-3 0  9995
2 41832 098.9256 320.4328 0066340 179.7738 180.3474 14.11045526100212
Source of the keplerian elements: AFSPC